Weather History for Joplin, MO

Change the Weather History Date:

Sunday, September 8, 2013

  Actual Average Record
Temperature  
Mean Temperature 85 °F 74 °F  
Max Temperature 96 °F 86 °F 98 °F (1955)
Min Temperature 74 °F 63 °F 45 °F (1956)
Degree Days  
Heating Degree Days 0 0  
Month to date heating degree days 0 0  
Since 1 July heating degree days 0 1  
Cooling Degree Days 20 9  
Month to date cooling degree days 101 84  
Year to date cooling degree days 1365 1511  
Growing Degree Days 34 (Base 50)    
Moisture  
Dew Point 65 °F    
Average Humidity 54    
Maximum Humidity 74    
Minimum Humidity 34    
Precipitation  
Precipitation 0.00 in 0.15 in 5.20 in (2007)
Month to date precipitation T 1.26  
Year to date precipitation 35.46 32.23  
Snow  
Snow 0.00 in - - ()
Month to date snowfall 0.0  
Snow Depth 0.00 in    
Sea Level Pressure  
Sea Level Pressure 29.91 in    
Wind  
Wind Speed 8 mph (SSW)    
Max Wind Speed 15 mph    
Max Gust Speed 20 mph    
Visibility 10 miles    
Events      
T = Trace of Precipitation, MM = Missing Value Source: NWS Daily Summary

Daily Weather History Graph

Daily Weather History Graph

Search for Another Location

Airport:

Trip Planner

Search our weather history database for the weather conditions in past years. The results will help you decide how hot, cold, wet, or windy it might be!

Date:

Astronomy

Sep. 08, 2013 Rise Set
Actual Time 6:54 AM CDT 7:35 PM CDT
Civil Twilight 6:28 AM CDT 8:02 PM CDT
Nautical Twilight 5:57 AM CDT 8:33 PM CDT
Astronomical Twilight 5:25 AM CDT 9:04 PM CDT
Moon 10:07 AM CDT (9/8) 9:18 PM CDT (9/8)
Length of Visible Light 13h 33m
Length of Day
12h 41m
Waxing Crescent, 11% of the Moon is Illuminated
Sep 8
Waxing Crescent
Sep 12
First Quarter
Sep 19
Full
Sep 26
Last Quarter
Oct 4
New

Hourly Weather History & Observations

Time (CDT) Temp. Heat Index Dew Point Humidity Pressure Visibility Wind Dir Wind Speed Gust Speed Precip Events Conditions
12:53 AM 77.0 °F - 64.9 °F 66% 29.92 in 10.0 mi South 6.9 mph - N/A   Clear
1:53 AM 75.9 °F - 64.9 °F 69% 29.93 in 10.0 mi South 6.9 mph - N/A   Clear
2:53 AM 73.9 °F - 64.0 °F 71% 29.92 in 10.0 mi South 6.9 mph - N/A   Clear
3:53 AM 75.0 °F - 64.0 °F 69% 29.92 in 10.0 mi South 6.9 mph - N/A   Clear
4:53 AM 75.9 °F - 63.0 °F 64% 29.92 in 10.0 mi South 8.1 mph - N/A   Clear
5:53 AM 73.9 °F - 63.0 °F 68% 29.92 in 10.0 mi South 6.9 mph - N/A   Clear
6:53 AM 75.0 °F - 63.0 °F 66% 29.93 in 10.0 mi SSW 6.9 mph - N/A   Clear
7:53 AM 77.0 °F - 63.0 °F 62% 29.93 in 10.0 mi SSW 8.1 mph - N/A   Clear
8:53 AM 81.0 °F 82.5 °F 64.0 °F 56% 29.94 in 10.0 mi SW 11.5 mph - N/A   Clear
9:53 AM 86.0 °F 88.2 °F 66.0 °F 51% 29.94 in 10.0 mi SW 9.2 mph - N/A   Clear
10:53 AM 88.0 °F 89.6 °F 64.9 °F 46% 29.94 in 10.0 mi West 6.9 mph - N/A   Clear
11:53 AM 90.0 °F 92.8 °F 66.9 °F 46% 29.94 in 10.0 mi WSW 6.9 mph - N/A   Clear
12:53 PM 90.0 °F 92.4 °F 66.0 °F 45% 29.94 in 10.0 mi WSW 8.1 mph - N/A   Clear
1:53 PM 93.9 °F 97.0 °F 66.0 °F 40% 29.92 in 10.0 mi SSW 10.4 mph 17.3 mph N/A   Clear
2:53 PM 93.9 °F 95.6 °F 64.0 °F 37% 29.90 in 10.0 mi South 6.9 mph - N/A   Clear
3:53 PM 95.0 °F 96.0 °F 63.0 °F 34% 29.88 in 10.0 mi WSW 11.5 mph - N/A   Clear
4:53 PM 93.9 °F 96.1 °F 64.9 °F 38% 29.87 in 10.0 mi SSW 11.5 mph - N/A   Clear
5:53 PM 93.0 °F 95.0 °F 64.9 °F 39% 29.87 in 10.0 mi SSW 8.1 mph - N/A   Clear
6:53 PM 90.0 °F 91.7 °F 64.9 °F 43% 29.87 in 10.0 mi South 6.9 mph - N/A   Clear
7:53 PM 84.0 °F 85.8 °F 64.9 °F 53% 29.88 in 10.0 mi South 5.8 mph - N/A   Clear
8:53 PM 81.0 °F 83.0 °F 66.0 °F 60% 29.88 in 10.0 mi South 5.8 mph - N/A   Clear
9:53 PM 79.0 °F - 66.0 °F 64% 29.90 in 10.0 mi SSE 8.1 mph - N/A   Clear
10:53 PM 78.1 °F - 66.0 °F 66% 29.91 in 10.0 mi SSE 6.9 mph - N/A   Clear
11:53 PM 75.9 °F - 66.0 °F 71% 29.91 in 10.0 mi South 6.9 mph - N/A   Clear